Location: Monteux
(44.0348°N, 4.9972°E)
Time: 14:30:41
(UTC+00:00)

Cosmos 1603 - Pass Details

Date: 30 November 2020
Orbit: 831 x 859 km, 71.0° (Epoch: 26 January)

Event Time Altitude Azimuth Distance (km) Brightness Sun altitude
Rises 17:58:09 0° 201° (SSW) 3,375 7.3 -20.1°
Reaches altitude 10° 18:00:35 10° 200° (SSW) 2,441 6.5 -20.5°
Maximum altitude 18:06:11 84° 114° (ESE) 844 3.6 -21.5°
Enters shadow 18:09:01 31° 28° (NNE) 1,432 4.6 -22.0°
